Vorticity
12 12 13 14 15 16 16 17 17 15 15 17 17 14 10 6 4 4 4 3 1 -1 -1 -0 1 1 2 4 6 6 6 6 6 6 6 7 9 10 10 10 10 10 8 7 6 5 6 6 5 6 7 7 7 7 7 6 5 5 6 6 6 6 6 7 7 6 4 4 5 7 8 5 -0 -2 2 5 7 7 7 6 5 4 4 4 3
12 12 12 13 14 16 16 16 17 15 14 14 16 19 19 16 12 8 7 6 5 2 -0 -0 0 0 0 1 3 5 6 6 6 6 6 7 8 10 10 10 10 10 11 10 9 8 8 8 8 7 8 9 10 11 11 12 12 11 12 13 12 11 11 11 11 9 8 7 7 7 10 9 4 0 -1 2 5 7 9 10 10 8 7 7 6
11 13 13 13 13 14 16 17 17 17 16 14 14 16 19 21 19 15 12 10 11 9 7 6 7 8 7 5 6 7 7 6 5 5 6 7 8 9 9 9 9 9 10 10 10 9 9 10 10 8 7 8 8 10 11 12 13 13 14 16 18 19 19 19 19 19 18 17 15 14 15 16 14 10 5 3 5 8 10 12 13 12 11 11 11
12 12 13 14 14 13 13 15 17 18 17 16 16 16 18 20 22 21 18 14 13 13 11 10 10 12 13 13 12 12 10 10 9 8 8 8 9 9 8 8 9 9 10 11 11 11 10 9 10 10 9 8 7 7 7 7 7 7 7 7 9 9 10 10 12 13 14 14 14 15 15 16 17 16 13 9 6 5 6 9 11 12 11 10 10
14 13 11 11 13 14 12 11 12 16 17 17 16 16 16 18 20 22 22 19 15 13 12 13 14 13 15 16 17 16 15 15 14 12 11 10 9 9 9 9 9 8 9 9 10 11 11 11 11 12 12 11 11 10 9 9 8 7 7 6 6 6 4 3 2 2 3 3 3 4 5 8 9 10 11 10 8 7 6 6 7 8 9 10 11
15 15 14 10 9 11 13 13 11 11 14 15 16 15 14 15 17 20 22 23 21 17 12 10 12 13 14 14 14 16 17 17 15 12 11 10 8 8 8 8 7 7 6 6 6 6 7 7 8 10 12 11 9 8 5 4 3 3 4 5 7 8 8 8 7 6 6 4 4 3 3 4 7 7 6 5 4 7 8 8 8 10 12 14 14
14 15 16 15 11 9 9 12 12 11 11 11 12 13 13 12 12 14 16 20 23 23 19 12 6 5 7 9 10 11 13 15 15 15 15 13 10 6 4 2 3 4 5 6 8 8 7 7 6 6 7 8 7 6 4 2 2 2 3 4 5 6 7 9 10 10 11 11 10 11 10 11 11 12 13 10 7 7 11 14 14 14 13 11 10
10 12 14 16 16 13 10 9 11 11 11 11 10 11 12 11 11 11 11 13 16 20 23 21 12 4 1 2 5 7 8 8 10 12 13 14 13 9 6 4 3 3 4 5 7 8 9 9 8 7 6 5 4 3 1 2 3 5 6 7 9 9 9 11 11 11 11 13 14 15 17 17 16 16 17 18 17 15 15 13 11 10 10 9 9
4 6 9 12 13 15 14 11 10 11 10 11 11 10 10 11 11 11 11 11 11 13 17 21 21 16 9 4 3 4 6 7 8 8 8 8 8 8 7 6 6 5 4 4 4 5 6 7 7 6 5 4 2 1 0 2 5 7 8 10 11 11 12 13 13 13 14 15 17 18 17 15 15 15 15 15 17 16 13 10 8 9 9 8 8
4 3 3 6 8 11 14 13 12 12 11 10 11 11 11 11 11 12 11 10 10 11 12 14 18 21 21 16 11 7 6 7 8 9 10 11 10 10 8 7 8 7 7 6 5 5 4 4 4 3 2 2 1 3 6 8 10 12 12 13 13 12 13 14 15 15 15 16 16 15 14 13 12 13 12 12 12 11 10 9 8 9 9 8 8
8 7 5 5 4 5 9 12 13 13 13 12 11 11 12 12 12 11 11 11 10 10 10 11 12 14 17 19 19 17 15 12 10 9 10 10 10 11 13 14 14 13 13 11 10 9 7 6 6 6 6 8 9 11 12 13 14 14 14 14 13 13 14 13 12 11 10 11 11 10 9 9 9 9 9 9 9 9 10 9 8 9 10 10 9
12 10 9 10 8 6 5 8 11 12 13 13 12 12 12 14 14 13 12 11 11 10 10 10 11 11 12 13 15 17 18 18 16 13 11 9 9 9 11 12 12 12 13 13 12 12 11 10 9 9 10 11 11 11 11 11 11 11 11 10 10 10 10 9 8 7 7 8 8 8 8 8 7 7 8 9 10 11 10 10 10 10 12 12 12
30 23 19 17 16 14 9 7 9 11 13 13 12 13 12 12 13 14 14 13 12 11 10 9 9 10 10 11 12 12 14 16 16 16 15 14 14 13 11 10 9 8 9 11 12 12 12 12 11 12 12 12 10 9 9 9 9 8 7 6 6 6 6 6 6 6 7 8 7 7 7 7 7 8 9 10 12 13 13 13 14 14 15 16 16
46 43 39 34 30 26 22 18 13 11 13 13 12 13 13 13 13 13 13 13 13 12 11 10 9 9 8 9 10 11 12 13 14 15 15 15 13 12 11 11 11 11 11 10 10 9 9 11 11 12 13 13 11 11 11 11 10 9 8 7 8 7 6 5 5 6 7 8 8 8 8 8 9 10 9 9 10 11 12 12 12 12 12 13 12
43 45 44 45 43 38 34 31 25 18 15 14 13 13 13 13 14 14 13 13 13 13 13 12 11 10 9 8 8 9 10 11 12 13 15 16 15 13 10 9 7 8 9 10 11 10 9 9 9 9 10 10 9 9 9 8 8 9 11 11 12 12 10 9 8 7 7 7 7 8 9 10 11 11 9 8 8 9 10 10 9 9 9 9 9
31 36 36 38 41 40 36 34 33 28 22 17 14 14 14 13 14 14 15 15 14 13 13 13 13 12 11 10 8 8 8 9 10 11 11 14 16 17 17 15 11 8 5 4 4 5 8 10 11 10 9 8 7 7 7 7 7 8 9 10 10 10 10 9 8 6 4 4 5 7 8 8 9 9 9 9 9 10 11 11 11 10 10 9 9
21 28 30 31 34 36 33 30 31 30 25 19 15 14 14 13 13 13 14 14 15 14 13 12 12 12 12 12 11 10 9 9 9 9 8 9 11 13 15 18 19 18 16 12 7 3 1 1 3 6 8 9 8 7 7 6 7 8 8 9 10 10 10 10 10 9 8 8 9 9 9 9 9 8 8 8 8 8 8 8 8 8 7 7 7
19 25 28 29 31 33 30 26 26 27 25 20 16 16 15 14 13 12 12 13 13 14 14 13 12 12 12 12 13 12 12 11 10 11 10 8 9 11 12 12 14 17 19 21 22 19 14 7 2 -2 -3 -2 -0 1 2 3 4 5 7 8 8 9 9 8 7 7 8 9 9 9 8 7 7 6 6 6 5 6 6 7 8 8 7 8 10
22 32 32 27 29 32 31 26 22 22 23 20 17 16 15 15 14 13 13 13 13 13 14 13 13 13 12 12 13 13 13 13 13 13 13 11 11 15 17 16 15 16 17 19 22 25 27 27 24 18 12 5 1 -2 -2 -2 -3 -2 0 1 2 2 3 2 1 1 2 3 3 4 5 6 6 7 8 9 9 9 10 10 9 9 9 10 11
30 39 35 25 27 32 31 29 24 20 21 20 18 17 16 15 16 15 14 15 15 15 15 15 14 14 13 13 13 13 14 14 15 16 17 17 16 17 20 20 19 19 21 22 23 23 25 28 32 35 35 33 28 22 17 13 9 6 5 5 6 6 6 7 8 9 10 11 12 12 12 12 12 12 12 11 11 10 10 11 11 11 11 13 14
27 35 33 25 27 31 30 30 27 20 19 19 18 18 17 15 15 16 15 15 15 16 16 16 16 15 15 15 15 15 15 15 16 18 19 21 20 19 20 21 21 21 22 23 24 24 25 26 28 30 32 33 35 35 33 31 29 26 23 20 18 18 17 17 18 17 17 16 16 15 14 14 14 14 14 14 14 15 15 16 16 15 14 15 15
18 33 33 24 26 30 30 31 28 21 19 19 18 18 17 16 15 15 15 15 15 15 15 15 16 16 16 16 16 17 18 18 19 19 19 20 19 16 15 18 21 23 23 23 24 25 25 26 27 27 27 28 29 29 30 30 30 30 29 27 25 24 23 22 20 19 18 17 17 18 18 18 18 18 18 17 16 15 14 13 12 11 10 11 11
21 37 32 23 26 30 28 29 28 22 19 19 18 18 17 16 15 14 14 15 15 15 16 16 16 16 16 17 17 18 19 20 20 19 17 16 14 12 12 16 19 21 21 21 23 24 24 24 25 26 27 29 30 31 32 32 32 32 33 33 32 31 29 26 23 20 19 18 17 16 15 13 12 12 11 10 9 9 10 12 13 13 14 15 16
29 34 28 25 28 29 27 28 27 22 19 19 19 18 17 16 15 14 14 14 15 16 16 16 16 16 16 17 18 17 15 14 14 14 14 12 11 12 15 16 16 16 16 16 16 16 17 18 18 19 20 20 22 23 24 25 26 27 27 27 27 26 25 25 24 23 21 19 17 17 16 16 16 17 17 18 19 20 21 21 22 22 22 21 20
31 30 27 28 28 26 25 26 25 21 19 19 19 17 17 16 15 14 14 14 14 15 14 14 14 16 17 16 14 11 10 11 12 13 12 11 11 15 16 14 12 11 10 11 11 12 12 12 12 12 12 13 13 14 14 16 16 17 18 19 19 20 21 22 23 24 25 25 25 25 25 25 25 25 24 24 24 23 21 19 18 17 17 16 14
29 28 28 28 26 24 23 24 23 22 19 18 18 17 16 16 15 14 14 14 13 13 13 13 15 16 15 12 9 9 10 13 15 15 12 10 13 15 13 9 9 9 7 6 7 7 8 9 9 10 10 10 10 10 11 12 12 12 13 14 14 15 15 16 17 17 18 18 18 18 18 18 17 17 17 16 15 13 13 12 11 11 11 11 10
28 29 29 26 22 21 22 22 22 21 19 18 17 16 16 15 14 14 13 13 13 12 13 14 15 15 12 9 8 10 13 15 15 14 12 11 13 16 13 7 5 6 5 5 5 5 5 6 6 6 7 7 8 8 8 9 8 8 8 8 8 8 9 9 9 9 9 10 10 11 11 10 10 10 10 10 10 10 10 10 10 10 9 8 8
29 28 26 23 21 20 21 20 20 20 19 17 17 16 16 15 14 13 13 12 12 13 14 14 14 13 11 9 10 12 14 16 15 13 12 12 13 16 15 11 8 6 6 7 8 8 8 8 9 9 9 9 9 9 9 9 9 8 8 8 8 8 8 8 8 8 9 9 9 9 9 9 9 10 10 9 9 8 8 8 9 9 8 8 8
27 24 22 20 21 21 20 19 19 19 17 16 16 16 15 14 14 13 12 12 12 13 13 13 13 12 11 11 12 14 17 17 15 13 13 13 13 14 15 14 13 12 11 12 12 13 13 13 13 13 13 13 13 13 13 13 13 13 12 12 11 11 11 11 11 11 11 11 10 10 10 10 9 9 8 8 8 8 8 8 8 7 7 6 7
24 21 20 20 20 20 19 18 17 16 15 15 15 15 15 14 13 13 12 12 13 14 13 12 12 12 11 11 13 16 17 16 15 13 13 12 12 13 14 14 15 15 14 14 14 15 15 15 14 14 14 14 14 14 14 13 13 12 12 12 12 11 11 10 10 10 9 9 8 8 8 8 9 9 9 10 9 9 8 8 9 11 14 17 20
23 20 19 19 19 20 18 16 15 14 14 14 15 15 15 14 13 13 13 14 15 14 14 14 14 13 12 13 14 15 15 14 13 12 11 11 12 13 14 14 14 14 14 15 15 14 13 13 12 11 11 11 10 10 10 9 9 9 9 8 8 8 8 8 9 8 8 8 9 10 10 10 10 10 10 10 11 13 16 20 24 27 28 28 26
23 21 18 18 18 19 17 15 14 14 14 15 16 15 15 14 14 14 14 14 14 14 14 14 14 14 14 15 15 14 14 13 13 13 13 14 14 14 14 14 13 13 13 12 11 10 9 9 9 8 8 8 8 8 8 8 8 8 9 9 9 9 9 10 10 10 11 11 11 11 10 10 11 14 17 21 25 27 28 27 25 21 18 16 14
21 19 18 18 18 17 16 14 14 14 14 15 16 15 14 14 14 14 14 14 13 13 13 13 13 14 15 15 14 13 14 15 15 16 16 16 16 14 13 12 11 10 10 9 9 8 8 8 9 9 8 9 9 9 9 10 10 10 11 11 11 11 12 12 12 12 12 12 12 13 17 21 25 27 28 28 25 21 17 14 12 10 10 10 10
19 18 18 18 17 16 16 14 14 14 15 15 14 13 13 14 14 14 14 14 14 14 14 14 14 14 15 15 15 15 16 16 16 16 14 13 12 11 10 10 9 8 8 9 9 10 10 9 9 10 10 10 10 10 11 11 12 12 13 13 13 13 13 13 13 13 14 17 22 26 29 29 27 23 19 15 12 10 10 10 10 10 10 9 9
18 18 17 17 16 15 15 14 14 15 14 14 14 13 13 13 14 14 14 14 15 15 16 16 16 16 17 17 17 16 15 13 11 11 10 9 9 9 9 9 9 9 9 9 9 9 9 10 10 11 11 11 12 13 13 13 14 14 14 14 14 13 13 14 17 20 25 29 30 28 22 17 13 11 10 9 9 9 9 9 9 9 8 9 9
18 18 17 17 15 14 14 14 14 15 14 14 14 13 13 14 14 14 15 16 16 17 17 17 17 16 16 15 13 11 10 9 9 9 8 8 8 9 9 9 9 9 9 10 10 10 10 11 11 12 12 13 13 14 14 14 14 14 14 14 14 16 19 23 27 28 28 25 19 14 10 9 9 8 8 8 8 7 8 8 8 9 9 8 8
17 17 16 15 14 14 14 14 14 14 14 14 13 12 13 14 14 15 15 15 15 15 14 13 12 11 10 9 8 8 8 8 8 8 7 7 7 7 7 8 8 9 9 10 11 12 12 12 13 13 13 14 14 14 14 14 14 14 15 17 20 24 27 28 26 22 17 13 10 9 9 9 7 6 6 6 6 7 7 8 8 8 7 7 7
15 15 14 14 14 14 14 14 14 14 14 13 13 13 14 14 14 14 13 12 11 10 9 8 8 8 7 6 6 7 7 6 5 5 4 4 4 5 6 7 8 9 10 11 12 13 13 13 14 14 14 14 15 15 15 16 16 18 20 22 25 27 26 21 16 11 9 9 9 8 7 6 5 5 6 6 6 6 7 8 8 7 7 7 7
13 13 12 12 13 13 13 14 14 14 13 12 12 13 13 12 11 10 9 9 9 8 7 7 6 6 5 6 6 6 5 5 4 3 2 2 3 4 5 7 8 10 11 12 13 14 14 14 14 14 15 15 16 17 18 19 20 21 22 23 24 22 16 11 9 8 8 8 7 6 5 5 5 5 5 6 7 8 8 8 7 6 6 7 7
12 12 11 11 11 11 12 13 13 13 13 12 12 11 11 10 9 8 8 8 7 7 7 6 5 5 5 5 5 5 4 3 3 3 3 3 3 4 5 6 8 9 11 13 13 14 14 14 14 14 14 15 17 19 21 22 22 22 23 22 19 14 9 7 8 8 7 6 5 5 4 4 4 5 6 7 8 8 8 7 7 7 7 8 9
11 11 11 11 10 9 9 10 11 11 10 9 9 8 8 7 6 6 6 6 6 6 6 6 6 6 6 5 5 5 4 3 2 2 2 1 2 3 5 6 7 9 11 13 14 14 14 14 13 13 13 15 17 21 23 22 22 22 22 19 13 8 7 7 7 7 6 5 4 4 4 5 6 6 7 8 8 8 7 7 7 7 8 9 12
10 10 11 10 10 9 9 8 8 8 8 8 7 6 6 6 6 6 7 7 6 7 7 6 6 6 5 5 5 5 5 4 3 2 2 2 3 5 6 7 7 9 11 13 14 13 14 14 13 12 12 14 17 21 23 21 21 23 21 15 10 7 6 6 6 6 5 4 4 5 6 6 7 7 8 8 8 7 6 7 8 9 12 15 18
8 9 10 10 9 9 9 8 8 8 7 7 7 6 6 7 7 7 7 7 7 7 7 7 7 7 7 7 7 6 5 5 4 4 4 5 6 7 8 8 8 9 11 12 13 13 13 13 12 12 11 12 17 22 23 20 21 22 18 12 8 6 6 6 6 5 5 5 6 6 6 6 7 8 8 7 6 6 7 9 11 14 18 21 24
9 8 8 9 10 9 9 8 8 8 7 6 6 6 6 6 7 7 7 7 7 8 8 8 8 8 8 7 7 7 7 6 6 6 7 7 8 9 8 7 8 9 10 12 12 12 12 13 12 11 11 12 16 22 23 21 21 21 17 12 8 6 5 5 6 6 6 6 6 6 7 8 8 8 7 6 7 8 10 12 16 20 24 26 26
9 10 9 8 8 9 9 9 8 8 7 7 7 7 6 6 7 7 7 8 8 8 9 8 8 8 8 8 7 7 7 7 8 8 8 8 8 8 7 7 8 9 10 11 12 12 13 13 12 12 12 12 16 21 23 21 20 20 16 12 9 6 5 6 6 6 7 7 7 8 9 9 8 7 7 7 9 10 14 19 23 26 26 24 22
10 8 9 10 9 8 8 8 9 9 8 8 7 7 7 8 8 7 8 9 9 8 9 9 8 8 9 9 9 9 9 9 9 9 8 8 8 7 8 8 8 8 10 11 12 12 13 13 13 13 13 13 16 21 22 21 20 20 17 13 10 8 7 6 6 6 7 7 8 9 9 8 7 7 8 9 12 16 21 24 26 24 23 22 22
19 14 10 8 9 9 9 8 7 7 7 8 8 8 7 8 8 8 8 9 9 9 9 9 9 10 10 10 10 10 10 9 9 8 8 8 7 7 8 8 9 10 12 13 14 15 15 14 15 15 14 14 17 22 22 20 20 20 17 14 12 9 7 7 7 7 8 9 10 9 8 7 7 8 10 13 18 22 25 25 24 23 22 22 22
22 24 20 15 10 8 8 9 9 8 8 7 7 7 8 8 8 8 9 9 10 10 10 10 10 10 10 9 9 9 9 8 8 8 8 8 8 9 10 12 14 16 17 17 17 17 16 15 15 15 14 16 19 22 21 20 20 18 16 14 12 9 8 8 8 8 9 10 9 8 7 7 8 11 14 19 23 25 25 24 23 23 23 23 22
15 19 23 25 22 17 12 9 8 8 9 9 9 8 8 8 8 8 8 8 9 9 9 9 9 9 9 9 9 8 8 8 8 8 8 10 12 15 17 20 21 21 21 20 20 19 18 17 17 16 16 18 21 22 21 20 19 17 15 13 11 9 9 9 9 10 10 9 8 7 8 9 12 16 21 25 26 24 23 23 24 25 25 23 20
15 13 14 19 24 25 24 21 16 11 9 8 8 8 8 8 8 8 8 8 8 8 8 8 8 8 8 8 8 8 9 10 12 14 17 20 22 23 23 23 23 22 22 22 22 23 23 23 21 20 20 21 21 21 20 19 18 15 13 12 11 10 10 10 10 10 9 8 7 8 10 13 18 23 26 26 25 24 25 26 25 23 20 17 15
19 16 13 12 14 19 22 25 26 24 20 16 13 11 10 9 8 8 7 8 8 8 8 9 9 10 11 13 14 17 19 21 22 24 25 24 23 22 21 19 19 19 20 21 21 22 24 25 25 24 22 21 20 20 19 17 15 13 12 11 10 10 10 10 10 9 8 8 8 11 14 18 23 26 26 25 26 27 26 24 20 17 15 14 13
Height
5459 5459 5459 5459 5458 5458 5458 5457 5457 5457 5457 5458 5459 5460 5461 5463 5464 5465 5467 5468 5469 5470 5471 5472 5473 5474 5476 5477 5478 5479 5481 5482 5483 5485 5487 5489 5491 5492 5494 5496 5497 5498 5500 5501 5503 5504 5505 5506 5508 5508 5508 5509 5510 5510 5512 5514 5514 5515 5516 5517 5519 5520 5520 5520 5524 5528 5526 5525 5529 5527 5528 5537 5540 5538 5538 5537 5537 5537 5537 5538 5540 5540 5542 5545 5546
5445 5445 5446 5446 5446 5446 5446 5446 5445 5445 5445 5445 5446 5447 5448 5449 5451 5452 5454 5455 5457 5458 5459 5460 5461 5463 5464 5466 5467 5469 5470 5472 5473 5474 5476 5478 5480 5481 5483 5485 5486 5487 5489 5491 5492 5494 5495 5496 5497 5498 5498 5498 5499 5500 5502 5503 5503 5505 5506 5506 5508 5509 5510 5510 5512 5516 5516 5516 5518 5516 5516 5523 5528 5528 5527 5527 5526 5526 5526 5526 5528 5530 5532 5533 5534
5432 5432 5432 5433 5434 5434 5434 5434 5433 5433 5433 5433 5434 5435 5435 5436 5437 5439 5441 5442 5444 5446 5447 5449 5450 5451 5453 5454 5456 5457 5459 5461 5462 5464 5466 5468 5469 5471 5472 5474 5475 5477 5478 5480 5482 5484 5485 5486 5487 5488 5488 5488 5490 5491 5492 5493 5494 5495 5496 5496 5497 5498 5499 5499 5500 5503 5504 5504 5506 5506 5504 5508 5514 5516 5517 5516 5515 5516 5516 5515 5515 5518 5520 5521 5521
5420 5420 5420 5420 5420 5421 5422 5422 5422 5422 5422 5421 5422 5422 5423 5424 5425 5427 5428 5430 5432 5434 5435 5437 5438 5440 5441 5443 5444 5446 5448 5450 5451 5453 5455 5457 5459 5460 5462 5463 5465 5467 5468 5470 5471 5473 5475 5476 5476 5477 5478 5478 5480 5481 5481 5482 5483 5485 5486 5486 5486 5487 5488 5489 5489 5491 5492 5493 5495 5495 5494 5496 5500 5502 5505 5506 5505 5504 5504 5503 5504 5506 5508 5509 5508
5406 5407 5407 5408 5408 5408 5409 5410 5410 5410 5410 5410 5410 5410 5411 5412 5413 5414 5416 5418 5419 5422 5424 5426 5427 5429 5430 5432 5433 5435 5437 5439 5440 5442 5444 5445 5447 5449 5451 5453 5454 5456 5458 5459 5461 5463 5465 5466 5466 5466 5467 5469 5470 5470 5471 5472 5473 5474 5476 5476 5476 5476 5476 5478 5479 5479 5481 5483 5484 5484 5483 5484 5486 5489 5493 5495 5494 5492 5492 5491 5492 5494 5496 5497 5497
5393 5393 5393 5394 5396 5396 5396 5397 5398 5399 5399 5399 5399 5399 5399 5400 5401 5402 5404 5405 5407 5409 5411 5414 5416 5418 5420 5421 5423 5424 5426 5427 5429 5431 5432 5434 5436 5438 5440 5442 5443 5445 5447 5448 5450 5452 5454 5455 5456 5456 5456 5458 5459 5459 5460 5460 5462 5464 5465 5465 5465 5465 5465 5467 5468 5468 5470 5472 5473 5473 5473 5473 5474 5477 5480 5483 5484 5482 5480 5479 5481 5483 5483 5484 5484
5381 5380 5379 5380 5382 5383 5384 5384 5385 5386 5387 5387 5388 5388 5389 5389 5390 5390 5392 5393 5395 5397 5399 5401 5403 5406 5408 5410 5412 5414 5415 5417 5418 5420 5421 5423 5425 5427 5429 5430 5432 5434 5436 5437 5439 5441 5442 5444 5445 5445 5445 5447 5448 5448 5449 5450 5451 5453 5454 5454 5454 5454 5455 5456 5457 5457 5458 5460 5461 5461 5463 5462 5462 5464 5467 5469 5472 5472 5469 5468 5469 5470 5470 5471 5471
5368 5368 5367 5367 5367 5369 5371 5371 5371 5372 5374 5375 5376 5377 5378 5379 5379 5380 5381 5382 5383 5385 5386 5388 5391 5393 5395 5398 5400 5402 5404 5406 5408 5409 5411 5413 5415 5417 5418 5419 5421 5423 5424 5426 5428 5429 5431 5433 5434 5435 5434 5435 5436 5437 5438 5439 5440 5441 5442 5443 5442 5442 5443 5444 5445 5445 5446 5448 5449 5450 5450 5450 5451 5452 5453 5456 5460 5461 5459 5456 5455 5456 5458 5458 5458
5354 5354 5354 5354 5354 5355 5357 5358 5358 5359 5361 5363 5364 5365 5366 5367 5368 5369 5370 5371 5372 5373 5375 5376 5378 5380 5382 5385 5387 5390 5392 5394 5396 5398 5400 5402 5404 5406 5407 5408 5410 5412 5413 5415 5416 5418 5419 5421 5422 5423 5423 5424 5425 5426 5427 5428 5428 5429 5431 5431 5431 5431 5432 5433 5433 5434 5435 5436 5437 5438 5438 5439 5440 5441 5441 5443 5447 5448 5447 5445 5444 5444 5445 5446 5446
5339 5340 5340 5341 5341 5342 5343 5344 5345 5346 5347 5350 5352 5353 5354 5356 5357 5358 5360 5361 5362 5363 5364 5365 5367 5368 5370 5372 5374 5377 5379 5381 5383 5385 5388 5390 5392 5394 5396 5397 5399 5400 5402 5403 5404 5406 5408 5409 5411 5411 5411 5412 5413 5414 5415 5416 5417 5418 5419 5420 5420 5420 5420 5421 5421 5423 5424 5424 5426 5426 5426 5428 5430 5429 5429 5432 5434 5435 5435 5435 5433 5431 5431 5433 5435
5323 5325 5325 5326 5327 5329 5330 5331 5333 5333 5334 5336 5338 5341 5342 5344 5345 5347 5348 5350 5351 5352 5354 5355 5356 5357 5359 5361 5362 5364 5366 5369 5371 5373 5375 5377 5380 5382 5384 5385 5387 5388 5390 5392 5393 5395 5396 5398 5399 5399 5400 5401 5402 5403 5404 5404 5405 5406 5407 5408 5409 5409 5410 5410 5411 5412 5412 5413 5415 5415 5415 5418 5418 5417 5418 5419 5420 5423 5423 5423 5422 5419 5418 5421 5423
5307 5309 5310 5310 5312 5314 5316 5318 5319 5321 5321 5323 5325 5327 5330 5332 5333 5335 5337 5338 5340 5342 5343 5345 5346 5347 5348 5350 5351 5353 5354 5356 5359 5361 5363 5365 5368 5370 5371 5373 5375 5376 5378 5380 5381 5383 5384 5386 5388 5388 5389 5390 5391 5392 5393 5394 5395 5395 5396 5397 5398 5399 5399 5400 5401 5401 5401 5403 5404 5404 5406 5407 5406 5406 5406 5406 5407 5410 5410 5410 5410 5407 5406 5408 5411
5291 5292 5294 5295 5296 5299 5301 5303 5305 5307 5308 5310 5312 5314 5317 5319 5322 5324 5325 5327 5329 5330 5332 5334 5335 5337 5338 5339 5341 5342 5343 5345 5347 5349 5351 5354 5356 5358 5359 5361 5363 5365 5366 5368 5369 5371 5372 5374 5376 5377 5378 5379 5380 5381 5382 5383 5383 5384 5385 5386 5388 5389 5389 5389 5390 5391 5390 5391 5393 5394 5395 5394 5394 5395 5394 5393 5394 5396 5398 5398 5397 5395 5395 5396 5399
5275 5275 5277 5278 5279 5282 5285 5288 5290 5293 5294 5297 5299 5302 5304 5307 5309 5312 5314 5316 5318 5319 5321 5323 5325 5326 5328 5329 5330 5332 5333 5334 5336 5339 5341 5343 5344 5345 5346 5348 5351 5353 5355 5356 5358 5359 5361 5362 5364 5366 5367 5367 5368 5370 5371 5371 5372 5373 5374 5375 5377 5379 5379 5379 5379 5379 5379 5380 5381 5383 5383 5381 5382 5383 5382 5381 5381 5383 5385 5386 5384 5384 5384 5385 5386
5261 5260 5261 5262 5263 5265 5268 5271 5274 5278 5281 5283 5286 5289 5292 5295 5297 5300 5303 5305 5307 5308 5310 5312 5314 5315 5317 5319 5320 5321 5323 5324 5326 5329 5331 5332 5333 5334 5335 5337 5339 5341 5343 5344 5345 5347 5349 5350 5351 5354 5355 5356 5356 5358 5359 5360 5361 5362 5363 5364 5366 5367 5368 5369 5368 5368 5368 5369 5370 5371 5371 5370 5370 5370 5370 5370 5370 5370 5371 5372 5371 5372 5373 5373 5374
5248 5247 5248 5248 5248 5249 5252 5255 5259 5263 5266 5270 5273 5276 5279 5282 5285 5288 5291 5294 5296 5298 5300 5301 5303 5305 5306 5308 5310 5311 5313 5314 5316 5319 5321 5322 5322 5322 5324 5325 5328 5330 5331 5332 5334 5335 5337 5338 5339 5341 5343 5344 5344 5346 5347 5348 5349 5350 5351 5353 5354 5355 5357 5357 5357 5357 5357 5357 5358 5359 5359 5358 5357 5358 5359 5359 5358 5358 5358 5358 5360 5360 5361 5362 5361
5238 5236 5236 5236 5235 5235 5238 5241 5244 5248 5252 5256 5260 5264 5267 5270 5273 5276 5280 5283 5285 5287 5289 5291 5293 5294 5295 5297 5298 5300 5302 5304 5306 5308 5311 5312 5312 5311 5313 5315 5316 5318 5320 5321 5323 5324 5325 5327 5328 5329 5331 5332 5333 5334 5335 5336 5337 5338 5340 5341 5342 5344 5345 5346 5346 5346 5345 5345 5346 5346 5346 5346 5346 5346 5347 5347 5347 5346 5345 5346 5348 5347 5347 5349 5349
5228 5226 5225 5224 5224 5224 5225 5228 5232 5235 5239 5243 5247 5251 5255 5259 5262 5265 5269 5272 5274 5277 5279 5281 5283 5284 5285 5286 5288 5289 5291 5293 5295 5297 5300 5302 5301 5300 5302 5304 5306 5307 5309 5310 5311 5312 5313 5315 5316 5318 5319 5320 5321 5322 5322 5323 5325 5327 5328 5329 5331 5332 5333 5334 5335 5334 5333 5332 5333 5333 5334 5334 5334 5335 5335 5335 5334 5334 5333 5334 5334 5333 5334 5337 5336
5220 5217 5215 5214 5213 5214 5215 5217 5220 5224 5228 5231 5235 5239 5244 5248 5251 5255 5258 5261 5264 5266 5269 5271 5273 5274 5275 5277 5278 5279 5281 5282 5284 5286 5288 5291 5291 5289 5290 5293 5295 5296 5297 5298 5299 5300 5301 5302 5303 5305 5306 5307 5308 5309 5309 5311 5313 5315 5316 5317 5319 5320 5320 5322 5323 5322 5320 5320 5321 5321 5321 5322 5322 5323 5323 5322 5321 5321 5322 5322 5320 5319 5321 5324 5322
5211 5208 5206 5204 5203 5204 5205 5207 5210 5214 5218 5221 5225 5229 5233 5237 5241 5245 5248 5251 5254 5257 5259 5262 5264 5265 5266 5267 5268 5270 5271 5272 5274 5276 5277 5280 5281 5279 5279 5282 5284 5285 5286 5287 5288 5288 5290 5291 5292 5293 5294 5294 5295 5296 5296 5297 5300 5302 5303 5304 5306 5307 5307 5308 5310 5310 5308 5308 5308 5309 5308 5309 5309 5311 5311 5310 5309 5308 5309 5310 5309 5307 5307 5309 5309
5203 5200 5197 5195 5194 5195 5196 5198 5201 5205 5208 5212 5215 5219 5223 5227 5231 5235 5238 5242 5245 5247 5250 5252 5254 5256 5257 5259 5260 5261 5262 5263 5265 5266 5268 5270 5271 5271 5270 5272 5274 5275 5275 5275 5276 5277 5278 5279 5281 5281 5281 5282 5283 5284 5284 5285 5287 5289 5291 5292 5293 5293 5294 5295 5297 5297 5296 5296 5296 5296 5296 5297 5297 5298 5298 5298 5297 5296 5295 5297 5298 5296 5295 5296 5296
5194 5192 5190 5188 5186 5187 5188 5190 5193 5196 5200 5203 5207 5210 5214 5218 5222 5226 5229 5233 5236 5238 5241 5243 5245 5247 5248 5250 5251 5252 5254 5255 5256 5258 5259 5261 5262 5263 5262 5263 5264 5265 5265 5266 5267 5268 5268 5269 5270 5270 5270 5271 5272 5273 5274 5275 5275 5276 5278 5280 5280 5281 5281 5282 5283 5284 5284 5285 5284 5285 5285 5285 5285 5286 5286 5286 5286 5285 5283 5284 5285 5285 5284 5284 5283
5186 5184 5182 5181 5179 5179 5181 5183 5185 5188 5192 5196 5199 5203 5206 5210 5214 5218 5221 5224 5227 5230 5232 5235 5237 5238 5240 5241 5243 5244 5245 5246 5248 5250 5251 5253 5254 5255 5255 5255 5255 5256 5256 5257 5258 5259 5259 5260 5261 5261 5261 5262 5263 5264 5265 5265 5265 5266 5268 5269 5269 5270 5270 5270 5271 5272 5274 5274 5274 5274 5274 5274 5274 5275 5275 5274 5274 5274 5273 5272 5272 5272 5272 5272 5271
5178 5176 5174 5173 5173 5173 5175 5177 5179 5182 5185 5189 5192 5195 5199 5203 5206 5210 5213 5216 5219 5222 5224 5227 5229 5230 5231 5233 5235 5236 5237 5238 5240 5242 5244 5245 5246 5247 5248 5248 5247 5248 5248 5249 5250 5250 5251 5252 5252 5252 5252 5253 5254 5255 5256 5256 5256 5257 5258 5259 5259 5260 5260 5260 5261 5262 5263 5264 5263 5263 5263 5263 5264 5264 5263 5263 5263 5263 5263 5261 5259 5259 5260 5261 5260
5171 5169 5167 5167 5167 5168 5170 5171 5173 5176 5180 5183 5186 5189 5192 5196 5199 5203 5206 5209 5212 5214 5217 5219 5221 5222 5224 5225 5227 5228 5229 5231 5233 5234 5236 5237 5239 5240 5240 5240 5240 5240 5241 5242 5242 5243 5244 5244 5245 5245 5245 5245 5247 5247 5247 5248 5248 5249 5250 5250 5250 5251 5251 5251 5251 5252 5253 5253 5253 5253 5253 5252 5253 5253 5253 5253 5252 5251 5251 5251 5249 5248 5248 5249 5249
5164 5162 5161 5161 5162 5163 5165 5167 5169 5171 5174 5177 5180 5183 5186 5190 5193 5196 5199 5202 5205 5207 5210 5212 5214 5215 5217 5219 5220 5221 5222 5224 5226 5227 5229 5230 5231 5232 5233 5233 5233 5234 5235 5236 5236 5236 5237 5237 5238 5238 5238 5239 5240 5240 5240 5240 5240 5241 5242 5242 5242 5242 5242 5242 5243 5243 5244 5244 5244 5244 5244 5243 5244 5244 5244 5243 5242 5240 5240 5241 5241 5240 5238 5238 5238
5158 5156 5156 5157 5158 5159 5161 5163 5165 5167 5170 5173 5176 5178 5181 5184 5187 5190 5193 5196 5198 5201 5203 5205 5207 5209 5211 5212 5213 5214 5216 5217 5219 5220 5221 5223 5224 5225 5225 5226 5227 5227 5228 5229 5229 5229 5230 5231 5231 5232 5232 5232 5232 5232 5233 5233 5233 5234 5234 5234 5234 5234 5234 5234 5234 5234 5235 5235 5235 5235 5235 5235 5235 5236 5235 5234 5233 5231 5230 5230 5231 5230 5229 5227 5227
5153 5152 5152 5153 5154 5156 5157 5159 5162 5164 5166 5169 5172 5174 5177 5179 5182 5185 5188 5190 5193 5195 5197 5199 5201 5203 5204 5206 5207 5208 5210 5211 5212 5213 5214 5216 5217 5218 5218 5219 5220 5221 5221 5221 5222 5222 5223 5224 5224 5224 5224 5224 5224 5225 5225 5225 5226 5226 5226 5226 5226 5226 5226 5226 5226 5226 5226 5226 5226 5226 5226 5225 5225 5226 5225 5225 5224 5222 5221 5221 5221 5220 5218 5217 5217
5150 5149 5150 5150 5151 5153 5154 5157 5159 5161 5163 5166 5168 5170 5173 5175 5177 5180 5183 5185 5188 5189 5191 5193 5195 5197 5198 5200 5201 5202 5204 5205 5206 5207 5208 5209 5210 5211 5211 5212 5213 5213 5213 5214 5215 5215 5216 5216 5216 5216 5216 5216 5217 5217 5217 5218 5218 5218 5218 5218 5218 5218 5218 5218 5218 5217 5218 5217 5217 5216 5216 5216 5216 5215 5215 5214 5214 5213 5212 5211 5210 5209 5208 5206 5206
5148 5148 5148 5148 5149 5151 5152 5154 5156 5158 5160 5163 5165 5167 5169 5171 5173 5176 5178 5181 5183 5184 5186 5188 5190 5191 5192 5194 5195 5196 5197 5198 5200 5201 5202 5203 5204 5204 5205 5205 5206 5206 5206 5207 5208 5208 5209 5209 5209 5209 5209 5209 5209 5210 5210 5210 5210 5210 5210 5210 5210 5210 5210 5210 5209 5209 5209 5208 5208 5207 5207 5207 5206 5205 5205 5204 5203 5202 5202 5201 5200 5198 5197 5196 5194
5147 5146 5146 5147 5148 5149 5151 5152 5154 5156 5158 5160 5162 5164 5166 5168 5170 5172 5174 5176 5178 5180 5181 5183 5184 5185 5187 5188 5189 5190 5191 5193 5194 5195 5196 5197 5198 5198 5198 5199 5199 5199 5200 5201 5202 5202 5202 5202 5202 5202 5202 5202 5203 5203 5203 5203 5203 5203 5203 5203 5202 5202 5202 5201 5201 5200 5200 5199 5199 5198 5198 5197 5197 5196 5195 5195 5193 5192 5191 5191 5189 5188 5186 5185 5184
5146 5146 5146 5146 5147 5148 5149 5151 5152 5154 5155 5157 5159 5161 5163 5165 5166 5168 5170 5172 5174 5175 5177 5178 5179 5180 5181 5183 5184 5185 5186 5187 5188 5189 5191 5192 5192 5192 5192 5193 5193 5193 5194 5195 5195 5195 5195 5195 5196 5196 5196 5195 5195 5195 5195 5195 5195 5195 5195 5194 5194 5194 5193 5192 5191 5191 5191 5190 5190 5189 5188 5188 5187 5186 5185 5184 5183 5182 5181 5180 5179 5178 5176 5175 5173
5146 5145 5145 5146 5146 5147 5148 5149 5150 5152 5153 5154 5156 5158 5160 5161 5163 5165 5166 5168 5169 5171 5172 5173 5174 5175 5176 5177 5179 5180 5181 5182 5183 5184 5185 5186 5186 5186 5187 5188 5188 5188 5188 5188 5188 5189 5189 5189 5189 5189 5189 5188 5188 5187 5187 5187 5186 5186 5186 5185 5186 5185 5184 5183 5182 5183 5182 5181 5180 5180 5179 5178 5177 5176 5175 5175 5174 5173 5172 5171 5170 5169 5167 5166 5164
5146 5145 5145 5145 5146 5146 5147 5148 5149 5150 5151 5152 5154 5155 5157 5158 5159 5161 5163 5164 5165 5166 5167 5168 5170 5170 5171 5172 5174 5175 5176 5177 5177 5179 5180 5180 5180 5181 5182 5182 5182 5182 5182 5182 5182 5182 5182 5182 5181 5181 5181 5181 5180 5180 5179 5178 5178 5177 5177 5176 5176 5176 5175 5174 5173 5173 5172 5172 5171 5170 5170 5169 5168 5167 5167 5167 5166 5165 5164 5163 5162 5160 5158 5157 5155
5146 5145 5145 5145 5145 5146 5146 5147 5147 5148 5149 5150 5151 5152 5154 5155 5156 5157 5159 5160 5162 5163 5164 5165 5166 5167 5167 5168 5169 5170 5171 5172 5173 5174 5175 5175 5175 5176 5177 5177 5177 5177 5176 5176 5176 5175 5175 5174 5174 5173 5173 5173 5172 5171 5171 5170 5169 5169 5168 5167 5167 5167 5166 5165 5164 5164 5163 5163 5163 5162 5161 5161 5161 5160 5159 5159 5158 5157 5156 5154 5153 5151 5149 5147 5145
5146 5145 5145 5145 5145 5145 5145 5145 5146 5146 5147 5148 5149 5150 5151 5152 5153 5154 5156 5157 5158 5159 5160 5161 5162 5163 5164 5165 5165 5166 5167 5168 5169 5170 5170 5170 5171 5171 5172 5172 5171 5171 5170 5169 5169 5168 5167 5167 5166 5165 5165 5164 5164 5163 5163 5162 5161 5160 5159 5159 5158 5157 5157 5156 5156 5155 5155 5155 5155 5154 5154 5154 5154 5153 5152 5152 5150 5149 5147 5146 5144 5142 5140 5137 5135
5146 5145 5145 5144 5144 5144 5144 5144 5144 5145 5145 5146 5146 5147 5148 5149 5150 5151 5153 5154 5155 5156 5157 5158 5158 5159 5160 5161 5162 5162 5163 5164 5164 5165 5165 5165 5165 5166 5166 5166 5165 5165 5164 5163 5162 5161 5160 5159 5158 5157 5156 5156 5155 5155 5154 5153 5152 5152 5151 5150 5150 5149 5149 5148 5148 5148 5148 5148 5148 5148 5148 5147 5146 5146 5145 5144 5142 5141 5139 5137 5135 5133 5131 5128 5125
5145 5144 5144 5143 5143 5143 5143 5143 5143 5143 5143 5144 5144 5145 5146 5147 5148 5149 5150 5151 5152 5153 5154 5155 5155 5156 5156 5157 5158 5158 5159 5159 5160 5160 5160 5160 5160 5160 5160 5160 5159 5158 5158 5157 5155 5154 5153 5152 5150 5149 5148 5148 5147 5146 5146 5145 5144 5143 5142 5142 5142 5141 5141 5141 5142 5142 5142 5142 5142 5141 5141 5140 5139 5138 5137 5136 5135 5133 5131 5129 5126 5124 5122 5119 5116
5145 5144 5143 5142 5142 5141 5141 5141 5141 5141 5142 5142 5142 5143 5144 5144 5145 5146 5147 5148 5149 5150 5151 5151 5152 5152 5152 5153 5153 5154 5154 5155 5155 5155 5155 5155 5155 5154 5154 5154 5153 5152 5151 5150 5149 5147 5146 5145 5144 5142 5141 5140 5139 5138 5137 5137 5136 5135 5135 5135 5135 5135 5135 5135 5136 5136 5136 5136 5136 5135 5135 5134 5133 5132 5131 5129 5127 5125 5123 5121 5118 5116 5113 5110 5106
5144 5143 5142 5141 5140 5140 5140 5140 5140 5140 5140 5140 5141 5141 5142 5142 5143 5143 5144 5145 5146 5146 5147 5148 5148 5148 5148 5149 5149 5149 5150 5150 5150 5150 5150 5149 5149 5148 5148 5147 5146 5145 5144 5143 5142 5141 5139 5138 5137 5136 5134 5133 5132 5131 5130 5129 5129 5129 5128 5128 5129 5129 5129 5130 5130 5130 5130 5130 5130 5129 5128 5128 5126 5125 5124 5122 5120 5118 5115 5113 5110 5107 5104 5100 5096
5142 5141 5140 5139 5139 5138 5138 5138 5138 5138 5138 5138 5138 5139 5139 5139 5140 5140 5141 5141 5142 5142 5143 5143 5143 5144 5144 5144 5144 5144 5144 5144 5144 5144 5143 5143 5142 5142 5141 5140 5140 5139 5138 5137 5135 5134 5133 5132 5130 5129 5128 5126 5125 5124 5123 5123 5122 5122 5122 5123 5123 5124 5124 5124 5124 5124 5124 5124 5124 5123 5122 5121 5120 5118 5116 5114 5112 5110 5107 5104 5101 5098 5094 5090 5086
5140 5139 5138 5137 5137 5136 5136 5136 5135 5135 5135 5135 5136 5136 5136 5136 5136 5137 5137 5137 5137 5138 5138 5138 5139 5139 5138 5138 5139 5139 5138 5138 5138 5138 5137 5136 5136 5135 5134 5134 5133 5132 5131 5130 5129 5127 5126 5125 5124 5123 5121 5120 5118 5117 5116 5116 5116 5116 5116 5117 5117 5118 5118 5118 5119 5119 5118 5118 5117 5117 5116 5114 5113 5111 5109 5107 5104 5101 5099 5096 5092 5089 5085 5081 5076
5137 5136 5135 5135 5134 5133 5133 5132 5132 5132 5132 5132 5132 5132 5132 5132 5132 5132 5132 5132 5133 5133 5133 5133 5133 5133 5133 5133 5133 5133 5132 5132 5131 5131 5130 5130 5129 5128 5127 5127 5126 5125 5124 5123 5121 5120 5119 5118 5117 5116 5115 5113 5112 5111 5110 5110 5110 5110 5110 5111 5112 5112 5113 5113 5113 5113 5112 5112 5111 5110 5109 5107 5106 5103 5101 5099 5096 5093 5090 5087 5083 5079 5075 5071 5067
5133 5132 5132 5131 5130 5130 5129 5129 5128 5128 5128 5128 5127 5127 5127 5127 5127 5127 5127 5127 5127 5127 5127 5127 5128 5128 5127 5127 5127 5126 5126 5125 5125 5124 5123 5123 5122 5121 5120 5119 5118 5117 5116 5115 5114 5113 5112 5111 5110 5109 5108 5107 5106 5105 5104 5104 5104 5104 5104 5105 5106 5107 5107 5107 5107 5107 5107 5106 5105 5104 5102 5100 5098 5096 5094 5091 5088 5085 5082 5078 5074 5071 5067 5063 5059
5129 5128 5127 5126 5126 5125 5125 5124 5124 5123 5123 5123 5123 5123 5123 5122 5122 5122 5122 5122 5122 5122 5122 5122 5122 5122 5121 5121 5121 5120 5119 5119 5118 5117 5116 5115 5114 5113 5112 5112 5111 5110 5109 5108 5107 5106 5105 5104 5103 5102 5101 5100 5099 5098 5098 5098 5098 5098 5099 5100 5100 5101 5101 5102 5102 5101 5101 5100 5099 5097 5096 5094 5092 5089 5087 5084 5081 5077 5074 5070 5066 5062 5059 5055 5052
5125 5124 5123 5122 5121 5120 5120 5119 5119 5118 5118 5118 5117 5117 5117 5117 5117 5116 5116 5116 5116 5116 5116 5115 5115 5115 5115 5114 5114 5113 5113 5112 5111 5110 5109 5109 5107 5106 5105 5104 5103 5102 5101 5100 5099 5098 5097 5096 5096 5095 5094 5094 5093 5092 5092 5092 5092 5092 5093 5094 5095 5096 5096 5096 5096 5095 5095 5094 5092 5091 5089 5087 5085 5082 5079 5076 5073 5070 5066 5062 5059 5055 5052 5049 5045
5119 5118 5117 5116 5116 5115 5114 5114 5113 5113 5112 5112 5112 5111 5111 5111 5111 5110 5110 5110 5109 5109 5109 5109 5108 5108 5108 5107 5107 5106 5106 5105 5105 5104 5103 5102 5100 5099 5098 5096 5095 5094 5093 5092 5091 5090 5089 5089 5088 5088 5088 5087 5087 5086 5086 5086 5086 5087 5088 5089 5089 5090 5090 5090 5090 5090 5089 5087 5086 5084 5082 5080 5078 5075 5072 5069 5065 5062 5059 5055 5052 5049 5046 5043 5040
5113 5112 5111 5110 5110 5109 5108 5107 5107 5106 5106 5106 5105 5105 5104 5104 5104 5104 5103 5103 5103 5102 5102 5102 5101 5101 5101 5100 5100 5099 5099 5098 5097 5097 5096 5095 5093 5092 5090 5089 5087 5086 5085 5084 5083 5082 5081 5081 5081 5081 5081 5080 5080 5080 5080 5080 5081 5082 5082 5083 5084 5085 5085 5085 5084 5084 5083 5081 5080 5078 5076 5074 5071 5068 5065 5062 5059 5055 5052 5050 5047 5044 5041 5038 5036
5107 5106 5105 5104 5103 5102 5101 5101 5100 5100 5099 5099 5099 5098 5098 5097 5097 5097 5097 5096 5096 5096 5095 5095 5095 5094 5094 5093 5093 5092 5091 5091 5090 5089 5088 5087 5085 5084 5082 5081 5080 5079 5078 5076 5075 5075 5074 5074 5074 5074 5074 5074 5074 5074 5075 5075 5076 5077 5077 5078 5079 5079 5080 5079 5079 5078 5077 5076 5074 5072 5070 5067 5065 5062 5059 5056 5053 5050 5047 5045 5042 5040 5037 5035 5032
5101 5100 5099 5097 5096 5095 5094 5094 5093 5093 5092 5092 5091 5091 5091 5090 5090 5090 5090 5089 5089 5089 5088 5088 5087 5087 5086 5086 5085 5085 5084 5083 5082 5081 5080 5079 5078 5076 5075 5074 5072 5071 5070 5069 5068 5068 5067 5067 5067 5068 5068 5068 5069 5069 5070 5070 5071 5072 5073 5074 5074 5075 5075 5074 5074 5073 5072 5070 5068 5066 5064 5061 5059 5056 5053 5051 5048 5046 5043 5041 5039 5036 5034 5032 5030
5095 5094 5093 5091 5090 5089 5087 5086 5086 5085 5084 5084 5084 5083 5083 5083 5083 5082 5082 5082 5082 5081 5081 5080 5080 5080 5079 5078 5078 5077 5076 5075 5075 5074 5073 5072 5071 5069 5068 5067 5066 5065 5064 5063 5062 5061 5061 5061 5061 5062 5062 5063 5064 5064 5065 5066 5067 5068 5069 5069 5070 5070 5070 5069 5069 5068 5066 5065 5063 5061 5059 5056 5053 5051 5048 5046 5044 5042 5040 5038 5036 5034 5032 5030 5028